Weather History for Rome, OR

Change the Weather History Date:

Wednesday, May 2, 2012

  Actual Average Record
Temperature  
Mean Temperature 43 °F 50 °F  
Max Temperature 62 °F 66 °F 91 °F (1947)
Min Temperature 24 °F 34 °F 20 °F (2008)
Degree Days  
Heating Degree Days 22 15  
Month to date heating degree days 41 30  
Since 1 July heating degree days 5807 6124  
Cooling Degree Days 0 0  
Month to date cooling degree days 0 0  
Year to date cooling degree days 4 0  
Moisture  
Dew Point 21 °F    
Average Humidity 47    
Maximum Humidity 81    
Minimum Humidity 13    
Precipitation  
Precipitation 0.00 in 0.04 in 0.39 in (1955)
Month to date precipitation 0.00 0.08  
Year to date precipitation 3.08 3.45  
Sea Level Pressure  
Sea Level Pressure 29.86 in    
Wind  
Wind Speed 7 mph (SE)    
Max Wind Speed 22 mph    
Max Gust Speed 30 mph    
T = Trace of Precipitation, MM = Missing Value Source: NWS Daily Summary

Daily Weather History Graph

Daily Weather History Graph

Search for Another Location

Airport:

Trip Planner

Search our weather history database for the weather conditions in past years. The results will help you decide how hot, cold, wet, or windy it might be!

Date:

Astronomy

May. 02, 2012 Rise Set
Actual Time 5:44 AM PDT 7:53 PM PDT
Civil Twilight 5:13 AM PDT 8:24 PM PDT
Nautical Twilight 4:35 AM PDT 9:02 PM PDT
Astronomical Twilight 3:53 AM PDT 9:44 PM PDT
Moon 4:07 PM PDT (5/2) 3:21 AM PDT (5/2)
Length of Visible Light 15h 11m
Length of Day
14h 09m
Waxing Gibbous, 84% of the Moon is Illuminated
May 2
Waxing Gibbous
May 5
Full
May 12
Last Quarter
May 20
New
May 28
First Quarter

Hourly Weather History & Observations

Time (PDT) Temp. Windchill Dew Point Humidity Pressure Visibility Wind Dir Wind Speed Gust Speed Precip Events Conditions
12:52 AM 42.1 °F 37.1 °F 21.9 °F 45% 29.85 in - NW 8.1 mph - N/A   Unknown
1:52 AM 32.0 °F 26.4 °F 21.0 °F 64% 29.87 in - SE 5.8 mph - N/A   Unknown
2:52 AM 28.0 °F 20.8 °F 19.9 °F 72% 29.88 in - East 6.9 mph - N/A   Unknown
3:52 AM 26.1 °F 17.6 °F 19.9 °F 78% 29.89 in - SE 8.1 mph - N/A   Unknown
4:52 AM 27.0 °F 19.5 °F 21.0 °F 78% 29.90 in - SE 6.9 mph - N/A   Unknown
5:52 AM 30.9 °F 25.2 °F 21.9 °F 69% 29.90 in - East 5.8 mph - N/A   Unknown
6:52 AM 37.9 °F 32.7 °F 25.0 °F 60% 29.90 in - ENE 6.9 mph - N/A   Unknown
7:52 AM 41.0 °F 35.2 °F 24.1 °F 51% 29.93 in - ENE 9.2 mph - N/A   Unknown
8:52 AM 43.0 °F 37.2 °F 25.0 °F 49% 29.94 in - ENE 10.4 mph - N/A   Unknown
9:52 AM 46.9 °F - 25.0 °F 42% 29.92 in - Variable 5.8 mph - N/A   Unknown
10:52 AM 50.0 °F - 24.1 °F 36% 29.91 in - Variable 5.8 mph - N/A   Unknown
11:52 AM 51.1 °F - 19.9 °F 29% 29.91 in - Variable 3.5 mph - N/A   Unknown
12:52 PM 54.0 °F - 12.9 °F 20% 29.86 in - SW 4.6 mph - N/A   Unknown
1:52 PM 57.9 °F - 10.0 °F 15% 29.88 in - WSW 11.5 mph 17.3 mph N/A   Unknown
2:52 PM 59.0 °F - 9.0 °F 14% 29.85 in - West 6.9 mph - N/A   Unknown
3:52 PM 60.1 °F - 10.0 °F 14% 29.83 in - South 6.9 mph - N/A   Unknown
4:52 PM 59.0 °F - 14.0 °F 17% 29.82 in - East 10.4 mph - N/A   Unknown
5:52 PM 60.1 °F - 12.9 °F 16% 29.80 in - East 8.1 mph - N/A   Unknown
6:52 PM 57.9 °F - 15.1 °F 19% 29.78 in - ENE 6.9 mph - N/A   Unknown
7:52 PM 55.9 °F - 17.1 °F 22% 29.78 in - Calm Calm - N/A   Unknown
8:52 PM 53.1 °F - 28.0 °F 38% 29.81 in - WSW 20.7 mph 29.9 mph N/A   Unknown
9:52 PM 51.1 °F - 30.9 °F 46% 29.83 in - West 8.1 mph - N/A   Unknown
10:52 PM 48.9 °F - 33.1 °F 54% 29.82 in - WSW 9.2 mph - N/A   Unknown
11:52 PM 48.0 °F - 35.1 °F 61% 29.79 in - Calm Calm - N/A   Unknown